Tracking 19634 objects as of 21-May-2019
HD Live streaming from Space Station
objects crossing your sky now

SCISAT 1

Track SCISAT 1 now!
10-day predictions
SCISAT 1 is classified as:


NORAD ID: 27858
Int'l Code: 2003-036A
Perigee: 639.6 km
Apogee: 650.8 km
Inclination: 73.9 °
Period: 97.5 minutes
Semi major axis: 7016 km
RCS: 0.7229 m2 (medium)
Launch date: August 13, 2003
Source: Canada (CA)
Launch site: Pegasus launched from Western Range Air Space (WRAS)
aabbcc
Your satellite tracking list
Your tracking list is empty




NASA's NSSDC Master Catalog

Two Line Element Set (TLE):
1 27858U 03036A   19140.60300081 +.00000025 +00000-0 +84879-5 0  9993
2 27858 073.9338 242.2128 0007963 190.3461 169.7551 14.77246270849493
Source of the keplerian elements: AFSPC